User: anonymous   Login
Location: Coupvray
(48.8929°N, 2.7967°E)
Time: 02:22:47
(UTC+00:00)
Language:

Cosmos 2322 Rocket - Orbit

View from above orbital plane
View from above orbital plane
View from above satellite
View from above satellite

Ground track
Ground track

The orbit data is extracted from the following two-line orbital elements,

1 23705U 95058B   20272.50575796 +.00000066 +00000-0 +58207-4 0  9999
2 23705 071.0246 032.7326 0014803 270.2683 089.6744 14.15142406286558
Epoch (UTC): 28 September 2020 12:08:17
Eccentricity: 0.0014803
inclination: 71.0246°
perigee height: 831 km
apogee height: 852 km
right ascension of ascending node: 32.7326°
argument of perigee: 270.2683°
revolutions per day: 14.15142406
mean anomaly at epoch: 89.6744°
orbit number at epoch: 28655

The dashed part of the orbit path shows where the satellite is in the earth's shadow,  

DLR